Weather in Puerto Princesa

Philippines     9°44′04″N   118°45′58″E
temp.,
°C
wind,
m/s
gust,
m/s
humid.,
%
clouds,
%
prec.,
mm/h
press.,
hPa
HPBL,
m
23 january, sat
sat2323:00+25ssw338999 0.2 1010280
02:00+25ssw238994 0.2 1008229
05:00+24s238856 0.0 1008215
08:00+26s238663 0.0 1010304
11:00+29sse336871 0.0 1010743
14:00+28sse227862 2.1 1008571
17:00+27s128044 2.2 1008266
20:00+25ssw118722 3.7 1010147
24 january, sun
sun2423:00+25wsw118727 0.1 101175
02:00+24wsw118744 0.1 100977
05:00+24w1187100 0.0 100969
08:00+26wnw118393 0.8 101067
11:00+29e116840 1.4 1011615
14:00+28ene117142 3.8 1009663
17:00+28ne127640 1.1 1008559
20:00+25ne118541 2.2 101037
25 january, mon
mon2523:00+25nne118661 0.1 101187
02:00+24nw118654 0.1 1009103
05:00+24nw128624 0.0 100989
08:00+25nnw118315 0.0 1011106
11:00+28e347019 0.0 1011698
14:00+28e457447 0.0 1008750
17:00+27ese347849 0.3 1008568
20:00+26e358737 0.3 1009322
26 january, tue
tue2623:00+25ene24889 0.0 1010342
02:00+25ene23877 0.0 1009314
05:00+25ne248754 0.1 1008376
08:00+26ne368050 0.3 1010729
11:00+28ene687363 0.1 10101036
14:00+28e577164 0.1 1008878
17:00+27e577935 0.0 1007650
20:00+25e348830 0.0 1009275
27 january, wed
wed2723:00+25ene348789 0.0 1009258
02:00+24ene238388 0.0 1008240
05:00+24ne1380100 0.0 1008267
08:00+25n027491 0.0 1009275
11:00+28e246284 0.0 1010713
14:00+28e566681 0.0 1008802
17:00+27e4676100 0.0 1007526
20:00+25ene3389100 0.4 1009230